KZ1X Weather Reports


Display with metric or nautical units.
time (UTC)temp
F
wind
direction
speed
MPH
gust
MPH
rain 1hr
in
rain 24hr
in
rain mn
in
humidity
%
barometer
mb
20260905023049 76 0 0.0 0.0 0.00 0.00 0.00 91 1015.3
20260905021552 76 0 0.0 1.0 0.00 0.00 0.00 91 1015.2
20260905020052 76 63 0.0 6.0 0.00 0.00 0.00 90 1015.1
20260905014550 76 0 0.0 1.0 0.00 0.00 0.00 91 1015.1
20260905013047 75 0 0.0 1.0 0.00 0.00 0.00 93 1014.4
20260905011610 75 0 0.0 0.0 0.00 0.00 0.00 93 1014.0
20260905010046 76 0 0.0 0.0 0.00 0.00 0.00 91 1013.2
20260905004551 77 0 0.0 0.0 0.00 0.00 0.00 89 1013.0
20260905003054 79 0 0.0 0.0 0.00 0.00 0.00 85 1012.8
20260905001553 80 0 0.0 1.0 0.00 0.00 0.00 80 1013.2
20260905000044 82 76 0.0 6.0 0.00 0.00 0.00 76 1013.4
20260904234550 84 128 0.0 4.0 0.00 0.00 0.00 75 1013.9
20260904233058 86 132 2.0 8.0 0.00 0.00 0.00 74 1014.3
20260904231549 86 0 0.0 0.0 0.00 0.00 0.00 79 1013.4
20260904230046 87 0 0.0 0.0 0.00 0.00 0.00 77 1013.4
20260904224548 87 0 0.0 0.0 0.00 0.00 0.00 77 1013.2
20260904223049 88 0 0.0 0.0 0.00 0.00 0.00 73 1013.2
20260904221547 89 0 0.0 1.0 0.00 0.00 0.00 74 1013.4
20260904214551 90 0 0.0 0.0 0.00 0.00 0.00 71 1013.1
20260904213051 91 0 0.0 2.0 0.00 0.00 0.00 69 1013.2
20260904211545 92 0 0.0 1.0 0.00 0.00 0.00 69 1013.0
20260904210048 92 0 0.0 1.0 0.00 0.00 0.00 69 1012.9
20260904204543 93 0 0.0 1.0 0.00 0.00 0.00 67 1013.0
20260904203043 96 0 0.0 1.0 0.00 0.00 0.00 64 1012.9
20260904201606 96 212 0.0 3.0 0.00 0.00 0.00 62 1012.9
20260904200051 95 0 0.0 1.0 0.00 0.00 0.00 64 1013.4
20260904194546 95 0 0.0 1.0 0.00 0.00 0.00 65 1013.8
20260904193050 95 351 0.0 3.0 0.00 0.00 0.00 65 1013.9
20260904191543 95 0 0.0 1.0 0.00 0.00 0.00 64 1014.0
20260904190046 97 0 0.0 2.0 0.00 0.00 0.00 59 1014.3
20260904184549 98 32 1.0 5.0 0.00 0.00 0.00 56 1014.5
20260904183058 98 113 0.0 2.0 0.00 0.00 0.00 56 1014.8
20260904181545 99 0 1.0 3.0 0.00 0.00 0.00 57 1015.1
20260904180100 98 248 0.0 2.0 0.00 0.00 0.00 61 1015.2
20260904174550 97 139 0.0 4.0 0.00 0.00 0.00 63 1015.2
20260904173108 97 3 0.0 3.0 0.00 0.00 0.00 64 1015.5
20260904171553 97 104 0.0 2.0 0.00 0.00 0.00 62 1015.6
20260904164549 95 0 0.0 2.0 0.00 0.00 0.00 63 1015.9
20260904163047 94 0 1.0 4.0 0.00 0.00 0.00 66 1016.2
20260904161542 93 139 1.0 3.0 0.00 0.00 0.00 66 1016.4
20260904160050 92 93 0.0 3.0 0.00 0.00 0.00 68 1016.6
20260904154550 91 0 0.0 1.0 0.00 0.00 0.00 70 1016.6
20260904153056 90 0 0.0 2.0 0.00 0.00 0.00 76 1016.9
20260904151547 89 0 0.0 4.0 0.00 0.00 0.00 75 1016.7
20260904150054 87 119 0.0 2.0 0.00 0.00 0.00 77 1016.8
20260904144552 85 82 0.0 4.0 0.00 0.00 0.00 79 1017.0
20260904143047 84 0 0.0 3.0 0.00 0.00 0.00 83 1016.7
20260904141544 83 0 0.0 2.0 0.00 0.00 0.00 83 1016.7
20260904140044 82 146 0.0 2.0 0.00 0.00 0.00 86 1017.0
20260904134548 81 0 1.0 3.0 0.00 0.00 0.00 86 1017.0
20260904133049 79 82 0.0 3.0 0.00 0.00 0.00 90 1016.8
20260904131548 78 0 0.0 0.0 0.00 0.00 0.00 93 1016.7
20260904130042 77 0 0.0 1.0 0.00 0.00 0.00 94 1016.9
20260904124558 76 0 0.0 1.0 0.00 0.00 0.00 95 1017.0
20260904123046 75 0 0.0 0.0 0.00 0.00 0.00 96 1017.2
20260904121546 74 0 0.0 0.0 0.00 0.00 0.00 97 1017.2
20260904120055 74 0 0.0 0.0 0.00 0.00 0.00 97 1017.0
20260904114549 74 0 0.0 0.0 0.00 0.00 0.00 97 1016.8
20260904113052 73 0 0.0 0.0 0.00 0.00 0.00 97 1016.8
20260904111555 73 0 0.0 0.0 0.00 0.00 0.00 97 1016.8
20260904110046 73 0 0.0 0.0 0.00 0.00 0.00 96 1016.7
20260904104556 74 0 0.0 0.0 0.00 0.00 0.00 96 1016.4
20260904103048 74 0 0.0 0.0 0.00 0.00 0.00 95 1016.6
20260904101545 74 0 0.0 0.0 0.00 0.00 0.00 96 1016.6
20260904100044 74 0 0.0 0.0 0.00 0.00 0.00 95 1016.6
20260904094602 74 0 0.0 0.0 0.00 0.00 0.00 95 1016.6
20260904093051 74 0 0.0 0.0 0.00 0.00 0.00 94 1016.4
20260904091542 75 0 0.0 0.0 0.00 0.00 0.00 94 1016.4
20260904090050 75 0 0.0 0.0 0.00 0.00 0.00 94 1016.2
20260904084548 75 0 0.0 0.0 0.00 0.00 0.00 93 1016.1
20260904083043 76 0 0.0 0.0 0.00 0.00 0.00 92 1015.9
20260904081611 76 0 0.0 0.0 0.00 0.00 0.00 92 1015.9
20260904080049 76 0 0.0 0.0 0.00 0.00 0.00 92 1015.8
20260904074602 76 0 0.0 0.0 0.00 0.00 0.00 92 1015.8
20260904073059 76 0 0.0 0.0 0.00 0.00 0.00 91 1015.8
20260904071549 77 0 0.0 0.0 0.00 0.00 0.00 91 1016.0
20260904070104 77 0 0.0 0.0 0.00 0.00 0.00 91 1016.0
20260904064543 77 0 0.0 0.0 0.00 0.00 0.00 91 1016.2
20260904063055 77 0 0.0 0.0 0.00 0.00 0.00 91 1016.6
20260904061600 77 0 0.0 0.0 0.00 0.00 0.00 90 1016.7
20260904060046 78 0 0.0 0.0 0.00 0.00 0.00 90 1017.1
20260904054551 78 0 0.0 0.0 0.00 0.00 0.00 90 1017.1
20260904053044 78 0 0.0 0.0 0.00 0.00 0.00 90 1017.3
20260904051552 79 0 0.0 0.0 0.00 0.00 0.00 89 1017.4
20260904050047 79 0 0.0 0.0 0.00 0.00 0.00 89 1017.5
20260904044549 79 0 0.0 0.0 0.00 0.00 0.00 88 1017.3
20260904043057 80 0 0.0 0.0 0.00 0.00 0.00 88 1017.2
20260904041552 80 0 0.0 0.0 0.00 0.00 0.00 88 1017.1
20260904040050 80 0 0.0 0.0 0.00 0.00 0.00 88 1017.1
20260904034552 80 0 0.0 0.0 0.00 0.00 0.00 89 1017.1
20260904033043 80 0 0.0 0.0 0.00 0.00 0.00 89 1016.9
20260904031549 79 0 0.0 0.0 0.00 0.00 0.00 90 1017.1
20260904030049 80 0 0.0 0.0 0.00 0.00 0.00 89 1017.0
20260904024550 80 0 0.0 0.0 0.00 0.00 0.00 88 1017.1